Weather History for Moriarty, NM

Change the Weather History Date:

Thursday, May 2, 2013

  Actual Average (KABQ) Record (KABQ)
Temperature  
Mean Temperature 42 °F 61 °F  
Max Temperature 53 °F 74 °F 89 °F (1943)
Min Temperature 30 °F 48 °F 29 °F (1967)
Degree Days  
Heating Degree Days 24 5  
Month to date heating degree days 10  
Since 1 July heating degree days 4114  
Cooling Degree Days 0 1  
Month to date cooling degree days 2  
Year to date cooling degree days 9  
Moisture  
Dew Point 14 °F    
Average Humidity 36    
Maximum Humidity 69    
Minimum Humidity 18    
Precipitation  
Precipitation 0.00 in 0.02 in 0.62 in (1931)
Month to date precipitation 0.03  
Year to date precipitation 2.07  
Snow  
Snow 0.00 in - - ()
Month to date snowfall  
Since 1 July snowfall  
Snow Depth -    
Sea Level Pressure  
Sea Level Pressure 30.48 in    
Wind  
Wind Speed 8 mph (ESE)    
Max Wind Speed 18 mph    
Max Gust Speed 22 mph    
Visibility 10 miles    
Events      
T = Trace of Precipitation, MM = Missing Value Source: NWS Daily Summary

Daily Weather History Graph

Daily Weather History Graph

Search for Another Location

Airport:

Trip Planner

Search our weather history database for the weather conditions in past years. The results will help you decide how hot, cold, wet, or windy it might be!

Date:

Astronomy

May. 02, 2013 Rise Set
Actual Time 6:11 AM MDT 7:50 PM MDT
Civil Twilight 5:44 AM MDT 8:17 PM MDT
Nautical Twilight 5:12 AM MDT 8:50 PM MDT
Astronomical Twilight 4:37 AM MDT 9:25 PM MDT
Moon 1:43 AM MDT (5/2) 12:59 PM MDT (5/2)
Length of Visible Light 14h 33m
Length of Day
13h 38m
Waning Gibbous, 47% of the Moon is Illuminated
May 2
Waning Gibbous
May 9
New
May 17
First Quarter
May 24
Full
May 31
Last Quarter

Hourly Weather History & Observations

Time (MDT) Temp. Windchill Dew Point Humidity Pressure Visibility Wind Dir Wind Speed Gust Speed Precip Events Conditions
12:35 AM 37.8 °F 35.3 °F 26.6 °F 64% 30.37 in 10.0 mi East 3.5 mph - N/A   Clear
1:15 AM 35.6 °F 29.9 °F 26.4 °F 69% 30.37 in 10.0 mi SE 6.9 mph - N/A   Clear
1:35 AM 35.8 °F 30.9 °F 24.8 °F 64% 30.38 in 10.0 mi East 5.8 mph - N/A   Clear
1:55 AM 34.9 °F 28.3 °F 23.2 °F 62% 30.38 in 10.0 mi East 8.1 mph - N/A   Scattered Clouds
2:15 AM 34.2 °F 26.2 °F 21.4 °F 60% 30.39 in 10.0 mi East 10.4 mph - N/A   Mostly Cloudy
2:35 AM 34.5 °F 26.2 °F 21.0 °F 58% 30.40 in 10.0 mi ESE 11.5 mph 16.1 mph N/A   Mostly Cloudy
2:55 AM 33.1 °F 26.1 °F 20.3 °F 59% 30.41 in 10.0 mi East 8.1 mph - N/A   Scattered Clouds
3:15 AM 32.2 °F 27.7 °F 20.1 °F 61% 30.42 in 10.0 mi SE 4.6 mph - N/A   Clear
3:35 AM 32.0 °F 28.7 °F 19.8 °F 61% 30.43 in 10.0 mi SSE 3.5 mph - N/A   Clear
3:55 AM 32.4 °F 29.1 °F 19.0 °F 58% 30.44 in 10.0 mi SE 3.5 mph - N/A   Clear
4:15 AM 32.4 °F 25.3 °F 18.3 °F 56% 30.44 in 10.0 mi East 8.1 mph - N/A   Mostly Cloudy
4:35 AM 32.9 °F 25.9 °F 17.8 °F 54% 30.45 in 10.0 mi East 8.1 mph - N/A   Overcast
4:55 AM 33.1 °F 24.4 °F 17.2 °F 52% 30.46 in 10.0 mi East 11.5 mph - N/A   Overcast
5:15 AM 32.9 °F 26.7 °F 16.7 °F 51% 30.46 in 10.0 mi East 6.9 mph - N/A   Overcast
5:35 AM 32.4 °F 26.0 °F 16.5 °F 52% 30.47 in 10.0 mi East 6.9 mph - N/A   Overcast
5:55 AM 32.0 °F 24.8 °F 16.0 °F 52% 30.48 in 10.0 mi East 8.1 mph - N/A   Overcast
6:15 AM 31.8 °F 26.2 °F 15.8 °F 52% 30.49 in 10.0 mi East 5.8 mph - N/A   Overcast
6:35 AM 30.9 °F 26.2 °F 15.4 °F 53% 30.50 in 10.0 mi East 4.6 mph - N/A   Scattered Clouds
6:55 AM 31.3 °F - 15.6 °F 52% 30.51 in 10.0 mi Calm Calm - N/A   Clear
7:15 AM 32.0 °F 26.4 °F 15.8 °F 51% 30.52 in 10.0 mi East 5.8 mph - N/A   Clear
7:35 AM 33.8 °F 25.8 °F 15.8 °F 48% 30.53 in 10.0 mi East 10.4 mph - N/A   Clear
7:55 AM 34.7 °F 27.5 °F 15.3 °F 45% 30.53 in 10.0 mi East 9.2 mph - N/A   Clear
8:15 AM 36.3 °F 30.1 °F 14.7 °F 41% 30.54 in 10.0 mi ENE 8.1 mph - N/A   Clear
8:35 AM 37.8 °F 29.8 °F 13.3 °F 37% 30.54 in 10.0 mi NE 12.7 mph 17.3 mph N/A   Clear
8:55 AM 36.9 °F 28.7 °F 12.7 °F 37% 30.55 in 10.0 mi ENE 12.7 mph - N/A   Scattered Clouds
9:15 AM 37.4 °F 28.9 °F 12.9 °F 37% 30.55 in 10.0 mi East 13.8 mph 18.4 mph N/A   Scattered Clouds
9:35 AM 40.5 °F 32.8 °F 13.1 °F 33% 30.55 in 10.0 mi East 13.8 mph 20.7 mph N/A   Clear
9:55 AM 42.4 °F 35.7 °F 12.7 °F 30% 30.55 in 10.0 mi ENE 12.7 mph 20.7 mph N/A   Clear
10:15 AM 42.6 °F 35.2 °F 12.2 °F 29% 30.55 in 10.0 mi ENE 15.0 mph 20.7 mph N/A   Clear
10:35 AM 42.8 °F 35.1 °F 12.6 °F 29% 30.56 in 10.0 mi East 16.1 mph 21.9 mph N/A   Clear
10:55 AM 44.2 °F 36.4 °F 13.1 °F 28% 30.56 in 10.0 mi East 18.4 mph - N/A   Scattered Clouds
11:15 AM 45.3 °F 39.0 °F 13.3 °F 27% 30.55 in 10.0 mi East 13.8 mph 21.9 mph N/A   Scattered Clouds
11:55 AM 46.0 °F 43.1 °F 14.4 °F 28% 30.54 in 10.0 mi South 5.8 mph 19.6 mph N/A   Scattered Clouds
12:15 PM 46.4 °F 42.4 °F 14.4 °F 28% 30.54 in 10.0 mi ENE 8.1 mph 16.1 mph N/A   Scattered Clouds
12:35 PM 48.2 °F - 13.8 °F 25% 30.53 in 10.0 mi NNE 5.8 mph 17.3 mph N/A   Clear
12:55 PM 48.2 °F - 12.9 °F 24% 30.52 in 10.0 mi ESE 5.8 mph - N/A   Clear
1:15 PM 50.0 °F - 12.7 °F 23% 30.52 in 10.0 mi NE 8.1 mph 16.1 mph N/A   Clear
1:35 PM 49.6 °F - 12.0 °F 22% 30.52 in 10.0 mi East 10.4 mph - N/A   Clear
1:55 PM 49.1 °F - 11.3 °F 22% 30.51 in 10.0 mi SE 3.5 mph - N/A   Clear
2:15 PM 51.3 °F - 11.3 °F 20% 30.51 in 10.0 mi East 4.6 mph - N/A   Clear
2:35 PM 51.1 °F - 11.8 °F 21% 30.51 in 10.0 mi ESE 9.2 mph - N/A   Clear
2:55 PM 51.4 °F - 11.5 °F 20% 30.49 in 10.0 mi ESE 6.9 mph - N/A   Clear
3:15 PM 52.2 °F - 11.5 °F 20% 30.49 in 10.0 mi ESE 4.6 mph - N/A   Clear
3:35 PM 53.1 °F - 10.9 °F 19% 30.48 in 10.0 mi East 5.8 mph - N/A   Clear
3:55 PM 53.1 °F - 10.9 °F 19% 30.47 in 10.0 mi SSE 9.2 mph - N/A   Clear
4:15 PM 53.2 °F - 11.1 °F 19% 30.47 in 10.0 mi SE 4.6 mph - N/A   Clear
4:35 PM 53.2 °F - 10.9 °F 18% 30.46 in 10.0 mi West 3.5 mph - N/A   Clear
4:55 PM 53.2 °F - 10.9 °F 18% 30.46 in 10.0 mi ESE 11.5 mph - N/A   Clear
5:15 PM 53.6 °F - 10.6 °F 18% 30.45 in 10.0 mi East 6.9 mph - N/A   Clear
5:35 PM 53.2 °F - 11.5 °F 19% 30.45 in 10.0 mi East 10.4 mph - N/A   Clear
5:55 PM 53.1 °F - 12.0 °F 20% 30.45 in 10.0 mi ESE 11.5 mph - N/A   Clear
6:15 PM 52.0 °F - 12.0 °F 20% 30.45 in 10.0 mi ESE 10.4 mph - N/A   Clear
6:35 PM 51.3 °F - 12.2 °F 21% 30.46 in 10.0 mi SSE 11.5 mph - N/A   Clear
6:55 PM 49.6 °F - 12.4 °F 22% 30.46 in 10.0 mi SSE 16.1 mph 20.7 mph N/A   Clear
7:15 PM 48.2 °F - 12.6 °F 24% 30.46 in 10.0 mi SE 13.8 mph - N/A   Clear
7:35 PM 46.6 °F - 12.2 °F 25% 30.46 in 10.0 mi SE 13.8 mph - N/A   Clear
7:55 PM 44.6 °F 38.4 °F 12.2 °F 27% 30.47 in 10.0 mi SE 12.7 mph - N/A   Clear
8:15 PM 43.3 °F 37.7 °F 12.2 °F 28% 30.47 in 10.0 mi SE 10.4 mph - N/A   Clear
8:35 PM 42.1 °F 36.6 °F 12.0 °F 29% 30.48 in 10.0 mi SE 9.2 mph - N/A   Clear
8:55 PM 41.0 °F 34.7 °F 11.8 °F 30% 30.49 in 10.0 mi SE 10.4 mph - N/A   Clear
9:15 PM 40.1 °F 34.1 °F 11.7 °F 31% 30.49 in 10.0 mi SE 9.2 mph - N/A   Clear
9:35 PM 39.0 °F 34.0 °F 11.3 °F 32% 30.50 in 10.0 mi SE 6.9 mph - N/A   Clear
9:55 PM 37.8 °F 33.3 °F 11.3 °F 34% 30.50 in 10.0 mi SE 5.8 mph - N/A   Clear
10:15 PM 36.5 °F 31.8 °F 10.8 °F 35% 30.50 in 10.0 mi SE 5.8 mph - N/A   Clear
10:35 PM 34.2 °F - 9.9 °F 36% 30.50 in 10.0 mi Calm Calm - N/A   Clear
10:55 PM 34.9 °F 30.8 °F 10.2 °F 36% 30.51 in 10.0 mi SSE 4.6 mph - N/A   Clear
11:15 PM 33.8 °F 27.7 °F 9.9 °F 37% 30.50 in 10.0 mi SE 6.9 mph - N/A   Clear
11:35 PM 32.4 °F 25.3 °F 10.2 °F 40% 30.50 in 10.0 mi SE 8.1 mph - N/A   Clear
11:55 PM 32.9 °F 26.7 °F 11.3 °F 41% 30.50 in 10.0 mi SE 6.9 mph - N/A   Clear